Simultaneous Nadir Overpasses (SNOs) Predictions

Prediction of SNOs between NPP and TERRA Satellite Orbit:

Table of predicted SNOs for the next 14.0 days since TLE Epoch: 4/11/2015
Index Date (NPP) Time (NPP) Lat,Lon (NPP) SZA (NPP ) Date (TERRA) Time (TERRA) Lat,Lon (TERRA) SZA (TERRA ) Distance(km) Time Diff (sec)
1 04/11/2015 15:04:59 69.38, -47.47 60.93 04/11/2015 15:06:10 69.24, -46.70 60.78 34.12 71
2 04/11/2015 15:55:34 -68.93, 120.49 119.55 04/11/2015 15:55:44 -68.90, 120.50 119.57 2.58 10
3 04/11/2015 16:46:18 68.81, -72.04 60.32 04/11/2015 16:45:11 68.79, -71.99 60.31 2.52 67
4 04/14/2015 07:21:42 68.96, 68.90 59.53 04/14/2015 07:22:42 68.96, 68.83 59.52 2.91 60
5 04/14/2015 08:12:24 -68.88,-123.67 120.57 04/14/2015 08:12:12 -68.85,-123.68 120.60 3.04 12
6 04/14/2015 09:02:58 68.22, 44.50 58.76 04/14/2015 09:01:48 68.24, 43.21 58.78 53.07 70
7 04/16/2015 23:38:32 68.92,-175.27 58.53 04/16/2015 23:39:09 68.94,-175.31 58.54 2.25 37
8 04/17/2015 00:29:14 -68.84, -7.83 121.57 04/17/2015 00:28:39 -68.83, -7.81 121.58 0.89 35
9 04/19/2015 15:04:49 -69.64, 132.20 121.67 04/19/2015 15:05:58 -69.56, 133.76 121.75 61.06 69
10 04/19/2015 15:55:21 68.89, -59.44 57.56 04/19/2015 15:55:35 68.89, -59.47 57.56 1.34 14
11 04/19/2015 16:46:03 -68.80, 108.00 122.55 04/19/2015 16:45:05 -68.79, 108.03 122.55 1.64 58
12 04/22/2015 07:21:28 -69.02,-111.15 123.21 04/22/2015 07:22:34 -69.01,-111.08 123.23 3.54 66
13 04/22/2015 08:12:11 68.86, 56.38
